H1 CPF 2 NER 2024 2 9 9 040 01 glonass128 H2 1106401 9128 37867 2024 2 9 0 0 0 2024 2 12 23 45 0 900 1 1 0 0 0 1 H9 10 0 60349 0.00000 0 -21044898.766 14111696.089 -2592387.559 10 0 60349 900.00000 0 -20540691.442 13905485.295 -5760811.443 10 0 60349 1800.00000 0 -19769822.685 13403435.748 -8816750.040 10 0 60349 2700.00000 0 -18784322.277 12581437.326 -11700448.348 10 0 60349 3600.00000 0 -17641927.534 11427518.689 -14355484.337 10 0 60349 4500.00000 0 -16403555.379 9942616.968 -16729897.617 10 0 60349 5400.00000 0 -15130655.144 8140804.577 -18777229.225 10 0 60349 6300.00000 0 -13882556.424 6048961.379 -20457449.980 10 0 60349 7200.00000 0 -12713926.451 3705904.699 -21737757.419 10 0 60349 8100.00000 0 -11672446.581 1161013.370 -22593224.587 10 0 60349 9000.00000 0 -10796807.560 -1527596.067 -23007287.396 10 0 60349 9900.00000 0 -10115109.008 -4295263.516 -22972061.113 10 0 60349 10800.00000 0 -9643730.592 -7073256.633 -22488480.482 10 0 60349 11700.00000 0 -9386721.475 -9791414.528 -21566261.906 10 0 60349 12600.00000 0 -9335732.033 -12380852.151 -20223689.981 10 0 60349 13500.00000 0 -9470488.252 -14776611.713 -18487234.409 10 0 60349 14400.00000 0 -9759785.924 -16920150.372 -16391006.689 10 0 60349 15300.00000 0 -10162959.737 -18761561.029 -13976069.193 10 0 60349 16200.00000 0 -10631762.345 -20261435.012 -11289611.979 10 0 60349 17100.00000 0 -11112571.668 -21392291.125 -8384015.046 10 0 60349 18000.00000 0 -11548831.315 -22139514.199 -5315815.754 10 0 60349 18900.00000 0 -11883619.926 -22501767.208 -2144602.508 10 0 60349 19800.00000 0 -12062240.609 -22490863.110 1068143.130 10 0 60349 20700.00000 0 -12034721.518 -22131105.095 4260233.262 10 0 60349 21600.00000 0 -11758123.150 -21458125.753 7369966.714 10 0 60349 22500.00000 0 -11198556.573 -20517275.979 10337306.101 10 0 60349 23400.00000 0 -10332829.296 -19361632.519 13105017.404 10 0 60349 24300.00000 0 -9149651.198 -18049708.030 15619751.768 10 0 60349 25200.00000 0 -7650351.163 -16642959.017 17833050.715 10 0 60349 26100.00000 0 -5849075.073 -15203194.612 19702257.534 10 0 60349 27000.00000 0 -3772456.757 -13789992.570 21191319.527 10 0 60349 27900.00000 0 -1458774.657 -12458228.097 22271467.698 10 0 60349 28800.00000 0 1043372.523 -11255816.307 22921762.446 10 0 60349 29700.00000 0 3676818.732 -10221760.324 23129495.915 10 0 60349 30600.00000 0 6377942.478 -9384584.785 22890443.769 10 0 60349 31500.00000 0 9079053.584 -8761219.158 22208961.268 10 0 60349 32400.00000 0 11710959.358 -8356377.327 21097920.839 10 0 60349 33300.00000 0 14205606.929 -8162460.093 19578490.639 10 0 60349 34200.00000 0 16498694.704 -8159986.117 17679756.136 10 0 60349 35100.00000 0 18532146.178 -8318535.287 15438189.351 10 0 60349 36000.00000 0 20256344.011 -8598167.246 12896973.213 10 0 60349 36900.00000 0 21632030.975 -8951257.732 10105191.374 10 0 60349 37800.00000 0 22631797.238 -9324677.338 7116896.788 10 0 60349 38700.00000 0 23241089.876 -9662222.039 3990075.275 10 0 60349 39600.00000 0 23458699.887 -9907193.172 785523.106 10 0 60349 40500.00000 0 23296703.790 -10005017.120 -2434339.852 10 0 60349 41400.00000 0 22779859.988 -9905792.092 -5606697.813 10 0 60349 42300.00000 0 21944483.574 -9566651.613 -8669582.273 10 0 60349 43200.00000 0 20836846.070 -8953841.354 -11563104.571 10 0 60349 44100.00000 0 19511167.498 -8044417.799 -14230651.365 10 0 60349 45000.00000 0 18027286.360 -6827493.262 -16620017.072 10 0 60349 45900.00000 0 16448107.421 -5304971.398 -18684448.625 10 0 60349 46800.00000 0 14836937.109 -3491739.450 -20383579.861 10 0 60349 47700.00000 0 13254821.270 -1415307.329 -21684235.422 10 0 60349 48600.00000 0 11757999.770 885092.248 -22561087.234 10 0 60349 49500.00000 0 10395587.024 3359904.876 -22997150.135 10 0 60349 50400.00000 0 9207577.287 5951097.339 -22984106.972 10 0 60349 51300.00000 0 8223258.971 8594363.886 -22522457.501 10 0 60349 52200.00000 0 7460104.038 11221602.141 -21621489.308 10 0 60349 53100.00000 0 6923177.617 13763553.666 -20299072.869 10 0 60349 54000.00000 0 6605090.317 16152497.724 -18581286.578 10 0 60349 54900.00000 0 6486492.232 18324885.123 -16501881.009 10 0 60349 55800.00000 0 6537084.543 20223802.162 -14101594.856 10 0 60349 56700.00000 0 6717102.728 21801162.641 -11427337.801 10 0 60349 57600.00000 0 6979205.734 23019537.921 -8531257.896 10 0 60349 58500.00000 0 7270688.852 23853550.861 -5469713.125 10 0 60349 59400.00000 0 7535924.956 24290778.151 -2302168.187 10 0 60349 60300.00000 0 7718930.012 24332126.423 909961.384 10 0 60349 61200.00000 0 7765944.288 23991669.545 4104495.119 10 0 60349 62100.00000 0 7627920.866 23295956.826 7219680.859 10 0 60349 63000.00000 0 7262817.647 22282823.491 10195373.057 10 0 60349 63900.00000 0 6637597.801 20999754.877 12974174.634 10 0 60349 64800.00000 0 5729856.118 19501873.583 15502522.035 10 0 60349 65700.00000 0 4529004.370 17849633.608 17731694.579 10 0 60349 66600.00000 0 3036967.009 16106316.829 19618730.824 10 0 60349 67500.00000 0 1268358.356 14335434.545 21127236.496 10 0 60349 68400.00000 0 -749866.608 12598140.226 22228070.476 10 0 60349 69300.00000 0 -2979274.705 10950758.768 22899897.322 10 0 60349 70200.00000 0 -5371296.579 9442532.703 23129596.859 10 0 60349 71100.00000 0 -7868995.479 8113677.046 22912523.485 10 0 60349 72000.00000 0 -10409192.685 6993822.270 22252610.001 10 0 60349 72900.00000 0 -12924864.934 6100909.404 21162313.006 10 0 60349 73800.00000 0 -15347717.767 5440583.375 19662399.258 10 0 60349 74700.00000 0 -17610830.828 5006110.702 17781574.905 10 0 60349 75600.00000 0 -19651267.359 4778826.489 15555962.095 10 0 60349 76500.00000 0 -21412540.522 4729093.891 13028430.278 10 0 60349 77400.00000 0 -22846833.910 4817737.890 10247792.397 10 0 60349 78300.00000 0 -23916882.669 4997895.006 7267879.142 10 0 60349 79200.00000 0 -24597434.808 5217202.455 4146507.311 10 0 60349 80100.00000 0 -24876229.045 5420235.048 944361.205 10 0 60349 81000.00000 0 -24754445.432 5551086.639 -2276191.549 10 0 60349 81900.00000 0 -24246607.114 5555985.639 -5452326.208 10 0 60349 82800.00000 0 -23379935.059 5385831.731 -8522003.938 10 0 60349 83700.00000 0 -22193181.258 4998543.377 -11425205.500 10 0 60349 84600.00000 0 -20734988.803 4361113.291 -14105129.169 10 0 60349 85500.00000 0 -19061848.096 3451281.268 -16509326.874 10 0 60350 0.00000 0 -17235736.529 2258750.270 -18590753.664 10 0 60350 900.00000 0 -15321541.757 785890.720 -20308708.767 10 0 60350 1800.00000 0 -13384381.728 -952097.321 -21629645.269 10 0 60350 2700.00000 0 -11486933.197 -2927574.486 -22527835.035 10 0 60350 3600.00000 0 -9686885.505 -5101387.551 -22985872.380 10 0 60350 4500.00000 0 -8034627.151 -7424291.420 -22995007.817 10 0 60350 5400.00000 0 -6571263.178 -9838806.961 -22555305.759 10 0 60350 6300.00000 0 -5327046.368 -12281435.513 -21675624.242 10 0 60350 7200.00000 0 -4320286.895 -14685135.793 -20373418.559 10 0 60350 8100.00000 0 -3556784.100 -16981958.163 -18674374.466 10 0 60350 9000.00000 0 -3029801.314 -19105725.073 -16611880.060 10 0 60350 9900.00000 0 -2720581.424 -20994645.075 -14226348.644 10 0 60350 10800.00000 0 -2599377.794 -22593751.329 -11564407.682 10 0 60350 11700.00000 0 -2626953.595 -23857063.619 -8677971.362 10 0 60350 12600.00000 0 -2756483.141 -24749385.060 -5623216.316 10 0 60350 13500.00000 0 -2935772.478 -25247660.668 -2459481.511 10 0 60350 14400.00000 0 -3109703.727 -25341843.600 751885.635 10 0 60350 15300.00000 0 -3222799.111 -25035235.717 3948714.239 10 0 60350 16200.00000 0 -3221796.416 -24344291.020 7069203.401 10 0 60350 17100.00000 0 -3058127.916 -23297892.636 10053101.752 10 0 60350 18000.00000 0 -2690199.591 -21936135.474 12842851.583 10 0 60350 18900.00000 0 -2085376.203 -20308666.507 15384677.102 10 0 60350 19800.00000 0 -1221590.398 -18472652.230 17629597.882 10 0 60350 20700.00000 0 -88509.576 -16490457.418 19534350.120 10 0 60350 21600.00000 0 1311787.568 -14427130.456 21062200.166 10 0 60350 22500.00000 0 2964653.137 -12347797.796 22183636.760 10 0 60350 23400.00000 0 4843238.186 -10315073.459 22876930.311 10 0 60350 24300.00000 0 6909373.333 -8386588.603 23128549.689 10 0 60350 25200.00000 0 9114927.724 -6612741.343 22933429.055 10 0 60350 26100.00000 0 11403592.960 -5034758.326 22295079.423 10 0 60350 27000.00000 0 13713021.326 -3683147.245 21225541.881 10 0 60350 27900.00000 0 15977232.994 -2576604.059 19745181.760 10 0 60350 28800.00000 0 18129195.286 -1721420.683 17882325.502 10 0 60350 29700.00000 0 20103469.249 -1111418.786 15672744.629 10 0 60350 30600.00000 0 21838815.026 -728413.984 13158993.969 10 0 60350 31500.00000 0 23280647.931 -543192.849 10389614.214 10 0 60350 32400.00000 0 24383242.211 -516963.554 7418211.818 10 0 60350 33300.00000 0 25111588.788 -603220.709 4302432.172 10 0 60350 34200.00000 0 25442826.833 -749946.786 1102844.835 10 0 60350 35100.00000 0 25367186.261 -902057.338 -2118237.893 10 0 60350 36000.00000 0 24888398.547 -1003985.899 -5297985.617 10 0 60350 36900.00000 0 24023555.752 -1002297.480 -8374292.568 10 0 60350 37800.00000 0 22802421.413 -848217.451 -11287012.292 10 0 60350 38700.00000 0 21266220.771 -499965.566 -13979157.901 10 0 60350 39600.00000 0 19465960.710 75207.172 -16398041.821 10 0 60350 40500.00000 0 17460350.461 899368.507 -18496330.262 10 0 60350 41400.00000 0 15313411.740 1982714.709 -20232989.498 10 0 60350 42300.00000 0 13091880.599 3322893.011 -21574103.548 10 0 60350 43200.00000 0 10862512.283 4904867.087 -22493545.991 10 0 60350 44100.00000 0 8689404.295 6701332.188 -22973492.071 10 0 60350 45000.00000 0 6631451.728 8673662.563 -23004761.072 10 0 60350 45900.00000 0 4740042.626 10773350.654 -22586982.826 10 0 60350 46800.00000 0 3057090.179 12943876.468 -21728586.204 10 0 60350 47700.00000 0 1613483.469 15122927.141 -20446611.322 10 0 60350 48600.00000 0 428019.949 17244872.085 -18766350.911 10 0 60350 49500.00000 0 -493138.213 19243388.644 -16720829.829 10 0 60350 50400.00000 0 -1156464.402 21054127.302 -14350134.843 10 0 60350 51300.00000 0 -1580528.202 22617304.505 -11700609.686 10 0 60350 52200.00000 0 -1794942.929 23880114.840 -8823932.813 10 0 60350 53100.00000 0 -1838848.001 24798862.615 -5776097.299 10 0 60350 54000.00000 0 -1758993.262 25340725.274 -2616313.873 10 0 60350 54900.00000 0 -1607508.484 25485077.026 594140.916 10 0 60350 55800.00000 0 -1439453.699 25224319.798 3793108.738 10 0 60350 56700.00000 0 -1310254.402 24564189.327 6918743.035 10 0 60350 57600.00000 0 -1273129.590 23523525.989 9910689.780 10 0 60350 58500.00000 0 -1376620.146 22133521.906 12711233.781 10 0 60350 59400.00000 0 -1662320.228 20436477.086 15266390.111 10 0 60350 60300.00000 0 -2162905.437 18484116.984 17526921.597 10 0 60350 61200.00000 0 -2900539.034 16335541.232 19449264.917 10 0 60350 62100.00000 0 -3885721.813 14054887.732 20996349.711 10 0 60350 63000.00000 0 -5116633.243 11708807.268 22138296.989 10 0 60350 63900.00000 0 -6578991.614 9363851.118 22852985.139 10 0 60350 64800.00000 0 -8246440.159 7083877.341 23126473.834 10 0 60350 65700.00000 0 -10081445.060 4927580.649 22953278.332 10 0 60350 66600.00000 0 -12036670.637 2946245.902 22336488.698 10 0 60350 67500.00000 0 -14056777.724 1181816.614 21287730.798 10 0 60350 68400.00000 0 -16080573.863 -334642.523 19826968.225 10 0 60350 69300.00000 0 -18043429.110 -1584025.464 17982146.805 10 0 60350 70200.00000 0 -19879859.686 -2559761.611 15788685.929 10 0 60350 71100.00000 0 -21526173.877 -3267864.377 13288823.752 10 0 60350 72000.00000 0 -22923070.790 -3726447.900 10530826.181 10 0 60350 72900.00000 0 -24018083.355 -3964730.373 7568072.517 10 0 60350 73800.00000 0 -24767762.197 -4021564.183 4458033.537 10 0 60350 74700.00000 0 -25139506.721 -3943553.461 1261160.657 10 0 60350 75600.00000 0 -25112963.775 -3782837.845 -1960292.664 10 0 60350 76500.00000 0 -24680931.913 -3594636.335 -5143493.928 10 0 60350 77400.00000 0 -23849730.003 -3434656.290 -8226273.961 10 0 60350 78300.00000 0 -22639011.813 -3356479.295 -11148362.556 10 0 60350 79200.00000 0 -21081032.130 -3409037.362 -13852590.972 10 0 60350 80100.00000 0 -19219393.962 -3634289.567 -16286035.221 10 0 60350 81000.00000 0 -17107329.128 -4065200.877 -18401075.271 10 0 60350 81900.00000 0 -14805585.038 -4724111.901 -20156347.160 10 0 60350 82800.00000 0 -12380007.742 -5621571.251 -21517567.475 10 0 60350 83700.00000 0 -9898924.520 -6755681.890 -22458212.753 10 0 60350 84600.00000 0 -7430437.705 -8111990.339 -22960039.825 10 0 60350 85500.00000 0 -5039745.063 -9663923.741 -23013436.816 10 0 60351 0.00000 0 -2786600.433 -11373755.851 -22617598.568 10 0 60351 900.00000 0 -723020.434 -13194061.155 -21780523.798 10 0 60351 1800.00000 0 1108664.118 -15069592.186 -20518836.163 10 0 60351 2700.00000 0 2677335.730 -16939502.472 -18857433.794 10 0 60351 3600.00000 0 3964131.940 -18739817.930 -16828976.506 10 0 60351 4500.00000 0 4962961.761 -20406052.451 -14473222.566 10 0 60351 5400.00000 0 5680478.651 -21875856.974 -11836229.907 10 0 60351 6300.00000 0 6135515.045 -23091590.636 -8969439.101 10 0 60351 7200.00000 0 6358006.160 -24002706.638 -5928657.469 10 0 60351 8100.00000 0 6387451.949 -24567853.876 -2772965.267 10 0 60351 9000.00000 0 6270985.026 -24756607.936 436434.080 10 0 60351 9900.00000 0 6061128.194 -24550761.037 3637397.059 10 0 60351 10800.00000 0 5813337.437 -23945119.200 6768033.743 10 0 60351 11700.00000 0 5583434.306 -22947775.537 9767889.724 10 0 60351 12600.00000 0 5425035.450 -21579850.214 12579094.604 10 0 60351 13500.00000 0 5387086.343 -19874709.359 15147456.551 10 0 60351 14400.00000 0 5511601.377 -17876696.208 17423483.791 10 0 60351 15300.00000 0 5831703.530 -15639427.227 19363315.508 10 0 60351 16200.00000 0 6370044.270 -13223723.137 20929546.466 10 0 60351 17100.00000 0 7137668.797 -10695259.029 22091931.562 10 0 60351 18000.00000 0 8133373.658 -8122028.737 22827958.497 10 0 60351 18900.00000 0 9343583.975 -5571725.833 23123278.808 10 0 60351 19800.00000 0 10742756.771 -3109146.849 22971989.593 10 0 60351 20700.00000 0 12294295.647 -793721.631 22376760.406 10 0 60351 21600.00000 0 13951941.570 1322729.169 21348802.031 10 0 60351 22500.00000 0 15661584.987 3197918.098 19907676.179 10 0 60351 23400.00000 0 17363427.046 4800617.382 18080947.608 10 0 60351 24300.00000 0 18994402.800 6111724.447 15903682.842 10 0 60351 25200.00000 0 20490767.708 7124821.370 13417802.317 10 0 60351 26100.00000 0 21790740.855 7846203.541 10671295.782 10 0 60351 27000.00000 0 22837094.788 8294374.675 7717313.675 10 0 60351 27900.00000 0 23579582.814 8499027.571 4613150.105 10 0 60351 28800.00000 0 23977100.207 8499551.963 1419135.966 10 0 60351 29700.00000 0 23999485.927 8343131.311 -1802536.773 10 0 60351 30600.00000 0 23628885.924 8082508.622 -4989036.373 10 0 60351 31500.00000 0 22860617.190 7773516.328 -8078133.233 10 0 60351 32400.00000 0 21703492.894 7472476.242 -11009436.369 10 0 60351 33300.00000 0 20179592.048 7233581.930 -13725598.090 10 0 60351 34200.00000 0 18323481.304 7106377.232 -16173460.736 10 0 60351 35100.00000 0 16180920.440 7133440.851 -18305120.579 10 0 60351 36000.00000 0 13807105.716 7348378.161 -20078885.740 10 0 60351 36900.00000 0 11264525.534 7774208.028 -21460107.460 10 0 60351 37800.00000 0 8620519.729 8422215.066 -22421867.101 10 0 60351 38700.00000 0 5944646.472 9291317.282 -22945504.684 10 0 60351 39600.00000 0 3305968.954 10367976.426 -23020978.510 10 0 60351 40500.00000 0 770376.871 11626654.586 -22647049.328 10 0 60351 41400.00000 0 -1601944.213 13030796.837 -21831286.486 10 0 60351 42300.00000 0 -3758789.617 14534297.033 -20589897.394 10 0 60351 43200.00000 0 -5657863.893 16083383.234 -18947385.397 10 0 60351 44100.00000 0 -7268281.830 17618841.514 -16936044.661 10 0 60351 45000.00000 0 -8571581.823 19078482.915 -14595303.956 10 0 60351 45900.00000 0 -9562212.472 20399748.469 -11970934.052 10 0 60351 46800.00000 0 -10247475.805 21522342.034 -9114135.947 10 0 60351 47700.00000 0 -10646933.499 22390780.142 -6080529.240 10 0 60351 48600.00000 0 -10791304.900 22956752.339 -2929061.509 10 0 60351 49500.00000 0 -10720906.669 23181194.068 279139.369 10 0 60351 50400.00000 0 -10483702.493 23035986.774 3481947.285 10 0 60351 51300.00000 0 -10133046.921 22505215.971 6617431.682 10 0 60351 52200.00000 0 -9725219.309 21585936.591 9625040.617 10 0 60351 53100.00000 0 -9316851.779 20288415.539 12446751.408 10 0 60351 54000.00000 0 -8962358.611 18635842.787 15028168.271 10 0 60351 54900.00000 0 -8711473.772 16663523.922 17319547.780 10 0 60351 55800.00000 0 -8606998.243 14417587.921 19276734.518 10 0 60351 56700.00000 0 -8682849.799 11953263.139 20861991.156 10 0 60351 57600.00000 0 -8962495.397 9332791.575 22044709.093 10 0 60351 58500.00000 0 -9457830.704 6623065.701 22801987.729 10 0 60351 59400.00000 0 -10168553.287 3893083.003 23119072.533 10 0 60351 60300.00000 0 -11082056.223 1211320.636 22989644.139 10 0 60351 61200.00000 0 -12173847.944 -1356864.104 22415952.831 10 0 60351 62100.00000 0 -13408483.068 -3751702.518 21408795.037 10 0 60351 63000.00000 0 -14740968.149 -5921252.295 19987330.732 10 0 60351 63900.00000 0 -16118586.778 -7823312.883 18178743.183 10 0 60351 64800.00000 0 -17483070.861 -9426939.379 16017745.020 10 0 60351 65700.00000 0 -18773030.008 -10713491.638 13545937.372 10 0 60351 66600.00000 0 -19926539.277 -11677173.784 10811031.729 10 0 60351 67500.00000 0 -20883777.891 -12325039.980 7865947.123 10 0 60351 68400.00000 0 -21589608.097 -12676464.435 4767798.083 10 0 60351 69300.00000 0 -21995984.614 -12762096.094 1576791.788 10 0 60351 70200.00000 0 -22064091.111 -12622340.655 -1644944.697 10 0 60351 71100.00000 0 -21766110.781 -12305433.122 -4834583.950 10 0 60351 72000.00000 0 -21086552.929 -11865182.324 -7929839.579 10 0 60351 72900.00000 0 -20023076.113 -11358483.693 -10870203.504 10 0 60351 73800.00000 0 -18586769.822 -10842707.249 -13598152.697 10 0 60351 74700.00000 0 -16801880.090 -10373073.837 -16060299.311 10 0 60351 75600.00000 0 -14704988.668 -10000133.496 -18208459.139 10 0 60351 76500.00000 0 -12343679.276 -9767455.716 -20000615.233 10 0 60351 77400.00000 0 -9774746.921 -9709632.093 -21401755.840 10 0 60351 78300.00000 0 -7062026.188 -9850678.186 -22384568.910 10 0 60351 79200.00000 0 -4273930.843 -10202903.731 -22929978.780 10 0 60351 80100.00000 0 -1480809.431 -10766299.754 -23027514.396 10 0 60351 81000.00000 0 1247770.898 -11528468.354 -22675502.325 10 0 60351 81900.00000 0 3845697.568 -12465097.281 -21881081.784 10 0 60351 82800.00000 0 6252830.324 -13540957.747 -20660042.795 10 0 60351 83700.00000 0 8417258.547 -14711381.452 -19036492.376 10 0 60351 84600.00000 0 10297204.870 -15924152.442 -17042357.194 10 0 60351 85500.00000 0 11862497.457 -17121731.944 -14716734.402 10 0 60352 0.00000 0 13095552.092 -18243720.612 -12105105.507 10 0 60352 900.00000 0 13991826.978 -19229453.713 -9258428.946 10 0 60352 1800.00000 0 14559733.481 -20020617.856 -6232134.145 10 0 60352 2700.00000 0 14820012.651 -20563781.090 -3085033.220 10 0 60352 3600.00000 0 14804605.715 -20812729.118 121824.324 10 0 60352 4500.00000 0 14555069.929 -20730511.248 3326332.616 10 0 60352 5400.00000 0 14120608.728 -20291111.739 6466523.229 10 0 60352 6300.00000 0 13555800.601 -19480678.243 9481749.325 10 0 60352 7200.00000 0 12918122.788 -18298257.739 12313838.408 10 0 60352 8100.00000 0 12265373.578 -16756010.668 14908193.009 10 0 60352 9000.00000 0 11653100.398 -14878895.332 17214820.069 10 0 60352 9900.00000 0 11132139.963 -12703836.037 19189271.326 10 0 60352 10800.00000 0 10746371.690 -10278409.083 20793478.838 10 0 60352 11700.00000 0 10530776.525 -7659099.854 21996471.687 10 0 60352 12600.00000 0 10509880.816 -4909201.251 22774961.853 10 0 60352 13500.00000 0 10696649.278 -2096437.830 23113789.314 10 0 60352 14400.00000 0 11091873.038 709589.057 23006218.517 10 0 60352 15300.00000 0 11684078.980 3440032.536 22454080.461 10 0 60352 16200.00000 0 12449965.628 6029402.000 21467756.924 10 0 60352 17100.00000 0 13355349.620 8418030.196 20066005.603 10 0 60352 18000.00000 0 14356585.907 10554305.127 18275627.476 10 0 60352 18900.00000 0 15402405.222 12396575.138 16130980.241 10 0 60352 19800.00000 0 16436094.645 13914648.050 13673344.439 10 0 60352 20700.00000 0 17397932.146 15090821.107 10950151.779 10 0 60352 21600.00000 0 18227774.415 15920397.322 8014088.098 10 0 60352 22500.00000 0 18867689.690 16411664.780 4922086.318 10 0 60352 23400.00000 0 19264524.203 16585337.792 1734227.633 10 0 60352 24300.00000 0 19372292.397 16473481.651 -1487428.253 10 0 60352 25200.00000 0 19154287.538 16117965.008 -4680060.833 10 0 60352 26100.00000 0 18584820.385 15568504.602 -7781329.591 10 0 60352 27000.00000 0 17650508.922 14880385.252 -10730611.981 10 0 60352 27900.00000 0 16351061.117 14111952.645 -13470212.207 10 0 60352 28800.00000 0 14699514.494 13321986.898 -15946514.649 10 0 60352 29700.00000 0 12721919.822 12567070.517 -18111056.871 10 0 60352 30600.00000 0 10456480.518 11899064.820 -19921498.917 10 0 60352 31500.00000 0 7952183.190 11362804.317 -21342467.916 10 0 60352 32400.00000 0 5266976.908 10994108.871 -22346260.077 10 0 60352 33300.00000 0 2465578.400 10818199.415 -22913385.500 10 0 60352 34200.00000 0 -383003.546 10848585.106 -23032944.954 10 0 60352 35100.00000 0 -3208119.344 11086469.002 -22702831.680 10 0 60352 36000.00000 0 -5940193.326 11520696.551 -21929755.227 10 0 60352 36900.00000 0 -8513387.412 12128247.570 -20729088.253 10 0 60352 37800.00000 0 -10868102.162 12875248.850 -19124541.022 10 0 60352 38700.00000 0 -12953211.180 13718462.270 -17147671.834 10 0 60352 39600.00000 0 -14727936.860 14607183.188 -14837244.965 10 0 60352 40500.00000 0 -16163291.241 15485466.744 -12238450.599 10 0 60352 41400.00000 0 -17243024.692 16294586.336 -9402003.723 10 0 60352 42300.00000 0 -17964046.140 16975619.289 -6383141.154 10 0 60352 43200.00000 0 -18336301.029 17472050.156 -3240537.430 10 0 60352 44100.00000 0 -18382115.876 17732282.046 -35161.476 10 0 60352 45000.00000 0 -18135040.347 17711951.010 3170903.361 10 0 60352 45900.00000 0 -17638238.365 17375947.409 6315653.139 10 0 60352 46800.00000 0 -16942497.847 16700060.955 9338348.568 10 0 60352 47700.00000 0 -16103943.804 15672182.087 12180669.840 10 0 60352 48600.00000 0 -15181550.994 14293010.945 14787820.353 10 0 60352 49500.00000 0 -14234559.777 12576245.396 17109559.991 10 0 60352 50400.00000 0 -13319902.067 10548240.808 19101150.189 10 0 60352 51300.00000 0 -12489743.293 8247155.520 20724194.844 10 0 60352 52200.00000 0 -11789241.075 5721616.418 21947363.034 10 0 60352 53100.00000 0 -11254612.331 3028958.195 22746981.419 10 0 60352 54000.00000 0 -10911587.942 233106.675 23107486.324 10 0 60352 54900.00000 0 -10774318.534 -2597809.186 23021727.519 10 0 60352 55800.00000 0 -10844776.890 -5394021.046 22491117.858 10 0 60352 56700.00000 0 -11112682.627 -8086757.813 21525625.189 10 0 60352 57600.00000 0 -11555953.804 -10610848.863 20143605.193 10 0 60352 58500.00000 0 -12141668.735 -12907188.191 18371476.345 10 0 60352 59400.00000 0 -12827500.339 -14924958.700 16243240.716 10 0 60352 60300.00000 0 -13563565.589 -16623524.690 13799857.097 10 0 60352 61200.00000 0 -14294614.877 -17973913.316 11088475.811 10 0 60352 62100.00000 0 -14962471.119 -18959821.990 8161547.510 10 0 60352 63000.00000 0 -15508616.975 -19578107.812 5075821.166 10 0 60352 63900.00000 0 -15876821.097 -19838736.359 1891249.354 10 0 60352 64800.00000 0 -16015691.524 -19764189.965 -1330178.478 10 0 60352 65700.00000 0 -15881046.261 -19388358.572 -4525651.851 10 0 60352 66600.00000 0 -15437997.950 -18754958.815 -7632779.428 10 0 60352 67500.00000 0 -14662661.046 -17915547.677 -10590827.655 10 0 60352 68400.00000 0 -13543405.681 -16927215.161 -13341931.489 10 0 60352 69300.00000 0 -12081601.727 -15850054.832 -15832251.055 10 0 60352 70200.00000 0 -10291818.615 -14744521.212 -18013049.085 10 0 60352 71100.00000 0 -8201470.145 -13668788.160 -19841665.754 10 0 60352 72000.00000 0 -5849917.802 -12676222.470 -21282369.825 10 0 60352 72900.00000 0 -3287069.719 -11813081.798 -22307068.016 10 0 60352 73800.00000 0 -571534.373 -11116535.981 -22895857.860 10 0 60352 74700.00000 0 2231592.626 -10613096.459 -23037412.996 10 0 60352 75600.00000 0 5053214.685 -10317520.331 -22729193.763 10 0 60352 76500.00000 0 7822887.877 -10232234.672 -21977479.891 10 0 60352 77400.00000 0 10471529.918 -10347303.933 -20797225.997 10 0 60352 78300.00000 0 12934070.508 -10640939.636 -19211744.433 10 0 60352 79200.00000 0 15151932.242 -11080528.264 -17252223.542 10 0 60352 80100.00000 0 17075239.077 -11624131.148 -14957092.738 10 0 60352 81000.00000 0 18664661.637 -12222390.292 -12371248.753 10 0 60352 81900.00000 0 19892824.527 -12820757.293 -9545159.948 10 0 60352 82800.00000 0 20745219.728 -13361949.341 -6533867.737 10 0 60352 83700.00000 0 21220591.301 -13788527.462 -3395905.851 10 0 60352 84600.00000 0 21330778.868 -14045487.715 -192159.258 10 0 60352 85500.00000 0 21100029.901 -14082756.358 3015314.607 99